Regional Weather Roundup
Issued by NWS

Home | Current Version | Previous Version | Text Only | Print | Product List | Glossary Off
Versions: 1 2 3 4 5 6 7 8 9 10 11 12 13 14 15 16 17 18 19 20 21 22 23 24 25 26 27 28 29 30 31 32 33 34 35 36 37 38 39 40 41 42 43 44 45 46 47 48 49 50

000
ASUS43 KMPX 220210
RWRMN
WEATHER ROUNDUP FOR MINNESOTA
NATIONAL WEATHER SERVICE TWIN CITIES/CHANHASSEN MN
900 PM CDT TUE OCT 21 2014


NOTE: "FAIR" INDICATES FEW OR NO CLOUDS BELOW 12,000 FEET WITH NO
SIGNIFICANT WEATHER AND/OR OBSTRUCTIONS TO VISIBILITY. N/A MEANS
CURRENT SKY AND/OR WEATHER CONDITIONS ARE NOT AVAILABLE.

MNZ060>063-068>070-220300-
   Twin Cities Metro

CITY           SKY/WX    TMP DP  RH WIND       PRES   REMARKS
TWIN CITIES    CLEAR     50  38  63 SE13      30.16R
ST PAUL        CLEAR     48  39  71 SE3       30.18R
CRYSTAL        CLEAR     52  39  61 SE9       30.15R
BLAINE         CLEAR     48  39  71 E7        30.16R
LAKEVILLE      CLEAR     46  39  76 SE7       30.16R
EDEN PRAIRIE   CLEAR     50  39  66 SE10      30.14R
SOUTH ST PAUL  CLEAR     50  39  66 SE5       30.17R
LAKE ELMO      FAIR      46  37  71 SE5       30.19R
$$
MNZ001>005-007-008-013>017-022>024-027-028-220300-
   Northwest Minnesota

CITY           SKY/WX    TMP DP  RH WIND       PRES   REMARKS
BEMIDJI        CLEAR     48  38  66 SE14G21   30.04R
HALLOCK        CLEAR     54  39  58 SE16      29.85S
ROSEAU         CLEAR     52  39  62 SE16G22   29.93S
WARROAD        CLEAR     50  39  66 SE13G24   29.96S
THIEF RVR FALL CLEAR     54  37  54 SE17      29.93R
CROOKSTON      CLEAR     55  41  58 S25G31    29.90S
FOSSTON        CLEAR     52  37  58 SE15G24   29.97R
DETROIT LAKES  CLEAR     50  41  71 SE20G25   30.00S
MOORHEAD       CLEAR     57  43  58 SE22G30   29.92S
PARK RAPIDS    CLEAR     49  38  65 SE16      30.05S
MAHNOMEN       FAIR      53  39  60 SE18G28   29.96S
$$
MNZ006-009>011-018-025>026-220300-
   North Central Minnesota

CITY           SKY/WX    TMP DP  RH WIND       PRES   REMARKS
BAUDETTE       CLEAR     46  36  68 SE10G20   30.01R
FLAG ISLAND    CLEAR     48  37  66 SE22      29.96S
INTL FALLS     CLEAR     40  34  79 SE10      30.09R
WASKISH        CLEAR     48  37  66 SE10G17   30.03R
BIG FORK       CLEAR     43  36  75 SE9       30.10S
LONGVILLE      CLEAR     46  37  71 SE8       30.09S
GRAND RAPIDS   CLEAR     41  34  75 SE10G17   30.13R
CRANE LAKE     CLEAR     36  34  93 CALM      30.17S
ORR            CLEAR     37  32  81 SE8       30.12S
COOK           CLEAR     37  34  87 SE8       30.16R
WALKER         FAIR      49  37  64 SE13G20   30.07R
$$
MNZ012-019>021-037-220300-
   Northeast Minnesota

CITY           SKY/WX    TMP DP  RH WIND       PRES   REMARKS
DULUTH         CLEAR     40  36  86 E15       30.19R
ELY            CLEAR     34  32  93 SE6       30.18S WCI  29
HIBBING        CLEAR     36  32  85 SE7       30.17R
EVELETH        CLEAR     36  36 100 SE5       30.18R
DULUTH HARBOR  CLEAR     45  39  81 E13       30.22R
TWO HARBORS    PTCLDY    43  28  56 E7        30.21R
SILVER BAY     PTCLDY    43  37  81 E8        30.22R
GRAND MARAIS     N/A     42  35  76 E12       30.27R
G MARAIS ARPRT CLOUDY    34  30  86 E6        30.24R WCI  29
$$
MNZ029>031-032-039>041-046>048-054>057-064-220300-
   West Central Minnesota

CITY           SKY/WX    TMP DP  RH WIND       PRES   REMARKS
FERGUS FALLS   CLEAR     54  37  54 SE21      29.99S
WHEATON        CLEAR     54  39  58 SE18G25   29.98R
MORRIS         CLEAR     55  41  58 SE17G23   30.00S
ALEXANDRIA     CLEAR     51  41  68 SE16      30.06S
ELBOW LAKE     FAIR      54  41  61 SE20G29   30.00R
WADENA         CLEAR     48  39  71 SE12G20   30.05S
GLENWOOD       CLEAR     48  41  76 E13       30.06S
APPLETON       CLEAR     57  39  51 SE15      30.00S
BENSON         CLEAR     55  43  62 S13G18    30.04R
ORTONVILLE     CLEAR     57  39  51 SE16G22   29.98R
MADISON        CLEAR     61  43  51 SE13      30.00R
WILLMAR        FAIR      54  39  58 SE15      30.08S
$$
MNZ033>034-036-042>043-049>051-058-059-220300-
   Central Minnesota

CITY           SKY/WX    TMP DP  RH WIND       PRES   REMARKS
ST CLOUD       CLEAR     50  38  63 E7        30.12S
SAUK CENTRE    FAIR      49  40  72 SE12      30.08S
PAYNESVILLE    CLEAR     49  40  69 E14       30.09S
AITKIN         CLEAR     48  37  66 SE8       30.13R
PINE RIVER     CLEAR     48  39  71 SE12      30.13R
BRAINERD       CLEAR     47  38  71 SE8       30.12S
STAPLES        CLEAR     48  37  66 SE10G17   30.08S
LONG PRAIRIE   FAIR      48  37  66 E9        30.09S
LITTLE FALLS   CLEAR     46  37  71 SE8       30.11S
LITCHFIELD     CLEAR     52  43  71 SE9       30.11R
BUFFALO        CLEAR     48  38  69 E7        30.15R
MAPLE LAKE     CLEAR     50  42  73 E5        30.14R
$$
MNZ037-044-045-052-053-220300-
   East Central Minnesota

CITY           SKY/WX    TMP DP  RH WIND       PRES   REMARKS
PRINCETON      CLEAR     46  39  76 E5        30.15R
MORA           CLEAR     43  36  75 SE3       30.18R
CAMBRIDGE      CLEAR     48  37  66 E3        30.15R
RUSH CITY      MOCLDY    45  37  73 E5        30.18R
MOOSE LAKE     CLEAR     39  36  87 CALM      30.16S
HINCKLEY       FAIR      45  36  70 CALM      30.18R
CLOQUET        CLEAR     39  37  93 E3        30.18R
MCGREGOR       CLEAR     39  36  87 E6        30.16R
$$
MNZ071>073-080-081-089-090-097-098-220300-
   Southwest Minnesota

CITY           SKY/WX    TMP DP  RH WIND       PRES   REMARKS
MONTEVIDEO     CLEAR     54  43  66 S12       30.04R
GRANITE FALLS  CLEAR     57  40  54 SE14G22   30.06R
CANBY          CLEAR     56  42  60 SE9       30.01R
MARSHALL       CLEAR     55  39  54 SE13      30.02S
REDWOOD FALLS  CLEAR     54  40  59 SE14      30.07R
OLIVIA         CLEAR     54  41  62 SE13      30.07R
PIPESTONE      CLEAR     59  41  51 SE14      30.02S
WINDOM         CLEAR     55  39  54 SE14      30.08S
WORTHINGTON    CLEAR     54  41  62 SE10      30.08R
JACKSON        CLEAR     52  39  62 SE10      30.10S
TRACY          CLEAR     57  42  58 S12G17    30.04S
SLAYTON        CLEAR     53  40  61 SE12      30.06R
$$
MNZ065>067-074>077-082>085-091>093-220300-
   South Central Minnesota

CITY           SKY/WX    TMP DP  RH WIND       PRES   REMARKS
MANKATO        CLEAR     52  37  58 SE15      30.13R
NEW ULM        CLEAR     54  43  66 SE13G18   30.10R
ST JAMES       CLEAR     52  39  62 SE10      30.12R
FAIRMONT       CLEAR     52  37  58 SE14      30.12R
GLENCOE        CLEAR     50  42  76 E10       30.12R
FARIBAULT      CLEAR     48  39  71 SE8       30.16R
OWATONNA       CLEAR     48  37  66 SE7       30.16R
WASECA         CLEAR     45  34  65 SE7       30.16S
ALBERT LEA     CLEAR     48  39  71 SE9       30.16R
$$
MNZ078>079-086>088-094>096-220300-
   Southeast Minnesota

CITY           SKY/WX    TMP DP  RH WIND       PRES   REMARKS
ROCHESTER      CLEAR     43  37  79 SE9       30.19S
RED WING       CLEAR     50  39  66 SE8       30.18S
STANTON        CLEAR     50  38  64 SE9       30.16R
DODGE CENTER   CLEAR     43  37  81 SE9       30.18R
WINONA         CLEAR     45  37  76 CALM      30.22R
AUSTIN         CLEAR     45  37  76 SE5       30.17S
PRESTON        CLEAR     45  36  71 SE7       30.21R
$$
ABBREVIATIONS USED IN REMARKS
   TC - TEMPERATURES IN CELSIUS
  WCI - WIND CHILL INDEX
   HX - HEAT INDEX
  VSB - VISIBILITY
$$



USA.gov is the U.S. government's official web portal to all federal, state and local government web resources and services.